Location: Newark
(46.7000°N, 60.6000°W)
Time: 08:02:54
(UTC+00:00)

Vanguard 3 - Pass Details

Date: 06 November 2020
Orbit: 508 x 3262 km, 33.3° (Epoch: 29 November)

Event Time Altitude Azimuth Distance (km) Brightness Sun altitude
Rises 10:53:59 0° 267° (W) 6,158 11.1 -0.6°
Reaches altitude 10° 10:57:50 10° 262° (W) 5,439 10.9 0.0°
Maximum altitude 11:14:08 48° 196° (SSW) 3,883 10.8 2.5°
Drops below altitude 10° 11:32:04 10° 130° (SE) 5,916 13.8 5.2°
Sets 11:36:29 0° 125° (SE) 6,712 14.6 5.9°
